Вернуться в каталог

RASSVET-3 12

АктивенНаукаPO
NORAD 68371·PAYLOAD·🇷🇺 Russia

Запущен Mar 23, 2026 с Plesetsk Cosmodrome

Loading…

Ближайшие Пролёты (ближайшие 24 часа)

TLE

СвежийSource: Space-Track

Эпоха: Sep 14, 2026, 02:35 UTC

1 68371U 26061M   26257.10809415  .00003312  00000-0  15958-3 0  9990
2 68371  82.2913 284.0256 0003133  86.1596 273.9995 15.18416918 26909

Отслеживайте RASSVET-3 12 в реальном времени с AllMySat

Download on the App Store